Regional Weather Roundup
Issued by NWS

Home | Current Version | Previous Version | Graphics & Text | Print | Product List | Glossary On
Versions: 1 2 3 4 5 6 7 8 9 10 11 12 13 14 15 16 17 18 19 20 21 22 23 24 25 26 27
000
ASUS45 KBOI 221710
RWRID

IDAHO REGIONAL WEATHER ROUNDUP
NATIONAL WEATHER SERVICE BOISE ID
1000 AM MST WED NOV 22 2017

NOTE: "FAIR" INDICATES FEW OR NO CLOUDS BELOW 12000 FEET
WITH NO SIGNIFICANT WEATHER AND/OR OBSTRUCTIONS TO VISIBILITY

IDZ012-014-221800-
SOUTHWEST IDAHO


CITY           SKY/WX    TMP DP  RH WIND       PRES   REMARKS
BOISE          CLOUDY    53  50  89 CALM      30.31R
CALDWELL       CLOUDY    48  48 100 S3        30.31S FOG
MOUNTAIN HOME  CLOUDY    53  53 100 SE16      30.31R
$$

IDZ016-017-221800-
SOUTHCENTRAL IDAHO


CITY           SKY/WX    TMP DP  RH WIND       PRES   REMARKS
BURLEY         MOSUNNY   57  46  66 SW9       30.34S
JEROME         PTSUNNY   51  45  79 NE9       30.36R
TWIN FALLS     PTSUNNY   59  45  59 S13       30.35R
$$

IDZ019>023-221800-
SOUTHEAST IDAHO


CITY           SKY/WX    TMP DP  RH WIND       PRES   REMARKS
IDAHO FALLS    CLOUDY    42  40  92 N6        30.41R
POCATELLO      CLOUDY    44  42  93 N3        30.39R
REXBURG        CLOUDY    41  40  96 CALM      30.40R
$$

IDZ006-010-011-018-031-032-221800-
CENTRAL IDAHO MOUNTAINS


CITY           SKY/WX    TMP DP  RH WIND       PRES   REMARKS
MCCALL         CLOUDY    42  42 100 CALM      30.33S FOG
HAILEY         PTSUNNY   45  41  87 NW7       30.41S
STANLEY          N/A     38  37  97 CALM      30.42S
SALMON         LGT RAIN  39  37  92 CALM      30.37R FOG
CHALLIS        CLOUDY    45  39  79 CALM      30.36S
$$

IDZ002-004-006-007-026-221800-
NORTHERN IDAHO


CITY           SKY/WX    TMP DP  RH WIND       PRES   REMARKS
LEWISTON       CLOUDY    50  50 100 CALM      30.17R
LOWELL           N/A     42  42 100 CALM      30.29R
COEUR D`ALENE  CLOUDY    49  48  97 CALM      30.14R
MULLAN PASS    LGT RAIN  42  41  96 VRB7      30.19S VSB<1/4
$$




USA.gov is the U.S. government's official web portal to all federal, state and local government web resources and services.